World > North America > United States > Mississippi > Metcalfe

Hourly Metcalfe, MS Regional Weather

Feedback E-mail the Weather

Quick WX

Metcalfe, MS Weather Maps

°F °C°F °C
Metcalfe Weather Map
UTC Time: 8/14/2022, 09:48
Your Time:

Metcalfe, MS Regional Weather

Expires:202208141000;;074612
ASUS44 KJAN 140910
RWRMS 

MISSISSIPPI HOURLY WEATHER ROUNDUP
NATIONAL WEATHER SERVICE JACKSON MS
400 AM CDT SUN AUG 14 2022

NOTE: "FAIR: INDICATES FEW OR NO CLOUDS BELOW 12,000 FEET WITH NO
SIGNIFICANT WEATHER AND/OR OBSTRUCTIONS TO VISIBILITY.


MSZ001>002-007>008-010>013-018>021-025>028-034>036-141000-
NORTHWEST MISSISSIPPI
  
CITY           SKY/WX    TMP DP  RH WIND       PRES   REMARKS
BATESVILLE     FAIR      66  64  94 CALM      29.99S                  
CLARKSDALE     CLEAR     68  68 100 CALM      29.99S                  
CLEVELAND      FAIR      70  69  98 CALM      29.98S                  
GREENWOOD      CLEAR     74  69  85 CALM      29.97S                  
GREENVILLE     CLEAR     71  68  90 CALM      29.97S                  
OLIVE BRANCH   CLEAR     66  64  94 CALM      30.03R                  
OXFORD         CLEAR     66  64  94 CALM      30.01F                  
TUNICA         CLEAR     66  66  99 CALM      29.99F FOG              
WINONA         FAIR      68  67  97 CALM      29.98F                  
$$


SKY/WX - Weather  TMP - Temperature  DP - Dew Point  RH - Humidity
WIND - Wind Direction/Speed PRES - Barometric Pressure VSB - Visibility
WCI - Wind Chill Index E13G22 Wind - East Wind 13 mph/Gusts of 22 mph

Trending Headlines

Metcalfe Radar Loop



Metcalfe Quick Facts


National Two Day Weather Forecast


E-mail the Metcalfe Weather Forecast

Voice your opinion or tell us about page issues...